Location: Carlingford
(46.7848°N, 67.7474°W)
Time: 12:27:16
(UTC+00:00)

N. Korean satellite - Pass Details

Date: 02 December 2022
Orbit: 407 x 441 km, 97.3° (Epoch: 05 February)

Event Time Altitude Azimuth Distance (km) Brightness Sun altitude
Rises 10:53:42 0° 358° (N) 2,530 10.0 -10.4°
Reaches altitude 10° 10:56:12 10° 340° (NNW) 1,643 8.9 -10.0°
Maximum altitude 10:58:43 19° 294° (WNW) 1,196 7.9 -9.6°
Drops below altitude 10° 11:01:12 10° 249° (WSW) 1,620 8.8 -9.2°
Sets 11:03:38 0° 230° (SW) 2,481 9.9 -8.8°
